AMOS-3

Last updated on Sat Jul 05 2025 00:02:44 GMT+0000 (Coordinated Universal Time)

1 32794U 08022A 25185.63599098 -.00000021 00000+0 00000+0 0 9999 2 32794 0.0534 242.1264 0001605 255.2361 10.3649 1.00270386 62969
UTC large
Height (km)
Speed (km/s)
/
Latitude / Longitude
Inclination (degrees)
Orbital Period (minutes)
Azimuth
Elevation
Range (km)
Doppler Factor

Next 0 passes for location: London (51.5072 / 0.1276)

Sorry there are no passes over London.